Tracking 20092 objects as of 14-Dec-2019
HD Live streaming from Space Station
objects crossing your sky now

FENGYUN 1C DEB

Track FENGYUN 1C DEB now!
10-day predictions


NORAD ID: 31643
Int'l Code: 1999-025CAZ
Perigee: 832.8 km
Apogee: 982.9 km
Inclination: 98.4 °
Period: 103.0 minutes
Semi major axis: 7278 km
RCS: 0.0065 m2 (small)
Launch date: May 10, 1999
Source: People's Republic of China (PRC)
Launch site: Taiyaun Space Center, China (TSC)

Note: This is SATELLITE DEBRIS
aabbcc
Your satellite tracking list
Your tracking list is empty




NASA's NSSDC Master Catalog

Two Line Element Set (TLE):
1 31643U 99025CAZ 19348.15209669  .00000690  00000-0  49067-3 0  9999
2 31643  98.3630 319.9217 0103099 350.1690  67.3655 13.97997687642220
Source of the keplerian elements: AFSPC